Weather in Kalinovichi

Belarus     52°07′43″N   29°19′57″E
temp.,
°C
wind,
m/s
gust,
m/s
humid.,
%
clouds,
%
prec.,
mm/h
press.,
hPa
HPBL,
m
13 april, tue
tue1300:00+8sse2294100 0.0 102146
03:00+9sse1291100 0.0 102042
06:00+8ese2390100 0.0 102066
09:00+10ese1286100 0.0 1020124
12:00+11se3480100 0.0 1019410
15:00+12se3476100 0.0 1019622
18:00+13se2468100 0.0 1017823
21:00+11ese3481100 0.0 101793
14 april, wed
wed1400:00+10sse2381100 0.0 101660
03:00+9se2582100 0.0 1016152
06:00+9se3686100 0.0 1015224
09:00+10se4782100 0.0 1015500
12:00+10se5784100 0.2 1015535
15:00+12se366992 0.3 1014689
18:00+12ssw346697 0.1 1014611
21:00+9nnw128686 0.4 101553
15 april, thu
thu1500:00+8nne348880 0.1 101470
03:00+7ene228877 0.1 101423
06:00+7ene228764 0.0 101417
09:00+10ne367999 0.0 1014203
12:00+12ne5675100 0.6 1014649
15:00+9nnw4793100 4.4 1013484
18:00+9nw2597100 1.3 1012247
21:00+9ne2396100 1.7 101269
16 april, fri
fri1600:00+8ne3698100 0.1 1011180
03:00+8ne4896100 0.4 1011404
06:00+8ne3697100 0.0 1010272
09:00+9ne4793100 0.3 1011414
12:00+11e787774 0.6 1011984
15:00+9ese5886100 1.0 1012647
18:00+10ese2477100 0.3 1013476
21:00+7e359268 0.6 101592
17 april, sat
sat1700:00+6e369248 0.0 1016136
03:00+6e369142 0.0 1017199
06:00+6ene3893100 0.0 1018301
09:00+7ene478191 0.0 1018709
12:00+10e576396 0.1 10201363
15:00+10ese576380 0.3 10201255
18:00+9se467067 0.1 1021890
21:00+6se368867 0.1 1022174